DECAYED

STARLINK-1820, 46717 (Decayed)

Orbit data source: Space-Track

STARLINK-1820, 46717 was a payload satellite owned by SpaceX/Seattle (US) in LEO that was launched on Sun, 18 Oct 2020 UTC via an FALCON 9 launch vehicle from the Air Force Eastern Test Range (AFETR). Payload-class satellites include a variety of spacecraft equipped with specific instruments for various scientific and technological missions. These include communications satellites like Starlink; space stations such as the ISS; scientific satellites like the Hubble; Earth observation satellites from companies like Planet Labs, Umbra, and HawkEye 360; GPS; miniature CubeSats for education and research; and military/defense satellites.

Not visible in the next 10 days
Identifier
46717, 2020-073AZ
Orbit
Decayed
Country
Flag of USUS
Related business
Manufacturer
SpaceX/Seattle
Mission
Decayed Commercial Communications
Bus & Motor
STARLINK, Unknown motor
Mass
260 kg wet, ~248 kg dry
Launch date (UTC)
2020-10-18 (6 years ago)
Launch vehicle
FALCON 9
Launch site
Air Force Eastern Test Range (AFETR)
Object type
Payload
Rocket body
Debris
Shape & HBR
Box + 1 Pan, 10.1 m
Radar Cross Section
13.562 m², Large (>1 m²)

Expand to show TLE details & history
Last TLE update: 2 months ago

TLE from 2 months ago
0 STARLINK-1820
1 46717U 20073AZ  26095.03715925  .09879917  12304-4  53658-3 0  9995
2 46717  53.0270  26.1596 0007125 169.5042 190.6155 16.42141733302469
Epoch: 2026-04-05T00:53Z
TLE epoch observation values (Epoch: 2026-04-05T00:53:30.559Z)
Latitude
-0.00002°
Longitude
179.43392°
Altitude
165.618 km
Speed
7.805 km/s
True Right ascension
01h 44m 38s
True Declination
0° 00' 00"
Sunlit
Object was in daylight at epoch
Visualization orbit readout
Latitude
Unknown
Longitude
Unknown
Altitude
Unknown
Speed
Unknown
Apparent Right ascension
Unknown
Apparent Declination
Unknown
Sunlit
N/A
Visualization observer readout
Local Sidereal Time
17:32:59
Azimuth
Unknown
Elevation
Unknown
Doppler factor
Unknown
Orbital elements
Apogee altitude
165.061 km
Perigee altitude
155.744 km
Semi-major axis
6,538.539 km
Eccentricity
0.00071
Inclination
53.027°
RAAN
26.1596°
Arg. of periapsis
169.5042°
True anomaly
190.60047°
Mean anomaly
190.6155°
Eccentric anomaly
190.60798°
Mean motion
4.10508 °/min
Orbital period
87.7 mins
BSTAR
0.00053658
Loading maneuver chart data...
Computing Atmospheric mass density...

Documentation

Showing up to 5 results
|